Location: �clusier
(49.9361°N, 2.7869°E)
Time: 07:40:40
(UTC+00:00)

ATLAS 3B R/B - Pass Details

Date: 16 June 2021
Orbit: 1003 x 1191 km, 63.8° (Epoch: 21 July)

Event Time Altitude Azimuth Distance (km) Brightness Sun altitude
Exits shadow 21:18:01 - 182° (S) 3,332 4.8 -9.3°
Reaches altitude 10° 21:19:43 10° 176° (S) 2,779 4.4 -9.5°
Maximum altitude 21:25:23 33° 115° (ESE) 1,664 3.3 -10.0°
Drops below altitude 10° 21:31:13 10° 55° (NE) 2,868 5.0 -10.5°
Sets 21:34:09 0° 46° (NE) 3,853 5.8 -10.8°
